This is the latest recevied weather packets stored in our database for station/object KI6AOK. If no packets are shown the sender has not sent any weather packets the latest 10 day(s).
| Time | Temp. | Humidity | Pressure | Rain* | Wind** | Luminosity | Snow |
|---|---|---|---|---|---|---|---|
| 1777232588 | 17.78° C | 54% | 1015 hPa | 0 mm | - | 234 W/m² | - |
| 1777232286 | 18.33° C | 54% | 1014.9 hPa | 0 mm | - | 271 W/m² | - |
| 1777231981 | 18.33° C | 50% | 1014.7 hPa | 0 mm | - | 1026 W/m² | - |
| 1777231679 | 18.33° C | 47% | 1014.7 hPa | 0 mm | - | 396 W/m² | - |
| 1777231375 | 18.33° C | 53% | 1014.8 hPa | 0 mm | - | 264 W/m² | - |
| 1777231070 | 17.78° C | 52% | 1015 hPa | 0 mm | - | 967 W/m² | - |
| 1777230768 | 17.78° C | 56% | 1015 hPa | 0 mm | - | 925 W/m² | - |
| 1777230462 | 17.78° C | 55% | 1014.9 hPa | 0 mm | - | 910 W/m² | - |
| 1777230159 | 17.78° C | 55% | 1014.8 hPa | 0 mm | - | 470 W/m² | - |
| 1777229856 | 17.22° C | 59% | 1014.8 hPa | 0 mm | - | 974 W/m² | - |
| 1777229552 | 16.67° C | 66% | 1014.9 hPa | 0 mm | - | 955 W/m² | - |
| 1777229249 | 17.22° C | 66% | 1014.9 hPa | 0 mm | - | 185 W/m² | - |
| 1777228947 | 16.67° C | 64% | 1014.7 hPa | 0 mm | - | 409 W/m² | - |
| 1777228642 | 16.67° C | 65% | 1014.7 hPa | 0 mm | - | 254 W/m² | - |
| 1777228338 | 16.11° C | 63% | 1014.8 hPa | 0 mm | - | 988 W/m² | - |
| 1777228035 | 16.67° C | 65% | 1014.8 hPa | 0 mm | - | 254 W/m² | - |
| 1777227734 | 16.67° C | 68% | 1014.8 hPa | 0 mm | - | 163 W/m² | - |
| 1777227430 | 16.67° C | 68% | 1014.8 hPa | 0 mm | - | 1013 W/m² | - |
| 1777227127 | 16.11° C | 70% | 1014.8 hPa | 0 mm | - | 1087 W/m² | - |
| 1777226823 | 15.56° C | 74% | 1014.9 hPa | 0 mm | - | 313 W/m² | - |
| 1777226521 | 15° C | 74% | 1014.8 hPa | 0 mm | - | 998 W/m² | - |
| 1777226218 | 15° C | 75% | 1014.8 hPa | 0 mm | - | 264 W/m² | - |
| 1777225914 | 15° C | 76% | 1014.7 hPa | 0 mm | - | 268 W/m² | - |
| 1777225610 | 15.56° C | 78% | 1014.6 hPa | 0 mm | - | 275 W/m² | - |
| 1777225307 | 15.56° C | 78% | 1014.6 hPa | 0 mm | - | 265 W/m² | - |
* Rain latest hour (hover to see other rain measurements)
** Current wind speed in m/s (hover to see current wind gust speed)